CES5402 ZSSS-ZJSY

Flight info

Callsign CES5402
Flight time 2h 39m
Altitude 36100
Route NXD W131 AKDIM A470 DUBGO W134 ELNEX A599 SHR/K0843S1160 A599 PLT W19 NOMAR W18 NLG W23 ZUH R200 BIGRO G221 SAMAS/K0832S0840 G221 WL
Aircraft A320/M-SDE2E3FGILRWXY/LB2

Departure

Time 2026-04-28 09:05
Airport Shanghai Hongqiao International Airport (ZSSS)

Arrival

Time 2026-04-28 11:44
Airport Sanya Phoenix International Airport (ZJSY)
Time Latitude Longitude Altitude Speed Heading
2026-04-28 08:50 31.18877 121.32878 19 ft 0 kts 267°
2026-04-28 08:58 31.18877 121.32881 19 ft 2 kts 267°
2026-04-28 08:58 31.18879 121.32911 19 ft 4 kts 256°
2026-04-28 08:58 31.18889 121.32939 20 ft 4 kts 222°
2026-04-28 08:59 31.18903 121.32948 22 ft 0 kts 177°
2026-04-28 09:01 31.18888 121.32954 20 ft 3 kts 141°
2026-04-28 09:02 31.18881 121.32996 19 ft 7 kts 93°
2026-04-28 09:02 31.18837 121.33025 19 ft 10 kts 175°
2026-04-28 09:02 31.18759 121.33029 19 ft 13 kts 177°
2026-04-28 09:02 31.18662 121.33034 19 ft 15 kts 178°
2026-04-28 09:03 31.18545 121.33040 19 ft 18 kts 177°
2026-04-28 09:03 31.18418 121.33048 19 ft 15 kts 177°
2026-04-28 09:03 31.18342 121.33074 19 ft 12 kts 121°
2026-04-28 09:03 31.18341 121.33177 19 ft 14 kts 88°
2026-04-28 09:04 31.18345 121.33278 19 ft 10 kts 86°
2026-04-28 09:04 31.18384 121.33323 19 ft 9 kts
2026-04-28 09:04 31.18440 121.33321 20 ft 15 kts 358°
2026-04-28 09:04 31.18797 121.33302 20 ft 95 kts 357°
2026-04-28 09:05 31.19708 121.33253 22 ft 163 kts 357°
2026-04-28 09:05 31.20922 121.33184 642 ft 176 kts 359°
2026-04-28 09:05 31.22139 121.33062 1762 ft 175 kts 348°
2026-04-28 09:05 31.23111 121.32193 2875 ft 189 kts 308°
2026-04-28 09:06 31.23727 121.30821 3746 ft 191 kts 304°
2026-04-28 09:06 31.24406 121.29415 4120 ft 209 kts 306°
2026-04-28 09:06 31.25192 121.27866 4444 ft 233 kts 305°
2026-04-28 09:06 31.26050 121.26192 4892 ft 245 kts 305°
2026-04-28 09:07 31.26924 121.24483 4934 ft 245 kts 304°
2026-04-28 09:07 31.27585 121.22656 4940 ft 249 kts 278°
2026-04-28 09:07 31.27264 121.20647 5000 ft 267 kts 245°
2026-04-28 09:07 31.26285 121.18761 5769 ft 274 kts 233°
2026-04-28 09:08 31.25132 121.17006 6823 ft 270 kts 229°
2026-04-28 09:08 31.23958 121.15315 7865 ft 266 kts 229°
2026-04-28 09:08 31.22759 121.13686 8884 ft 263 kts 221°
2026-04-28 09:08 31.21241 121.12525 9889 ft 261 kts 204°
2026-04-28 09:09 31.19490 121.11964 10748 ft 264 kts 188°
2026-04-28 09:09 31.17611 121.11964 11293 ft 281 kts 182°
2026-04-28 09:09 31.15581 121.12062 11538 ft 304 kts 181°
2026-04-28 09:09 31.13387 121.12183 11723 ft 327 kts 181°
2026-04-28 09:10 31.11081 121.11996 12092 ft 336 kts 196°
2026-04-28 09:10 31.08907 121.11029 12694 ft 336 kts 213°
2026-04-28 09:10 31.07079 121.09341 13377 ft 336 kts 229°
2026-04-28 09:10 31.05766 121.07094 14063 ft 337 kts 245°
2026-04-28 09:11 31.05007 121.04500 14683 ft 340 kts 253°
2026-04-28 09:11 31.04355 121.01849 15301 ft 342 kts 253°
2026-04-28 09:11 31.03700 120.99177 15906 ft 344 kts 253°
2026-04-28 09:11 31.03039 120.96501 16492 ft 346 kts 253°
2026-04-28 09:12 31.02366 120.93791 17083 ft 349 kts 253°
2026-04-28 09:12 31.01688 120.91068 17686 ft 351 kts 253°
2026-04-28 09:12 31.01004 120.88325 18283 ft 354 kts 253°
2026-04-28 09:12 31.00314 120.85562 18795 ft 357 kts 253°
2026-04-28 09:13 30.99620 120.82777 19305 ft 359 kts 253°
2026-04-28 09:13 30.98924 120.79975 19792 ft 362 kts 253°
2026-04-28 09:13 30.98219 120.77145 20301 ft 365 kts 253°
2026-04-28 09:13 30.97507 120.74291 20794 ft 368 kts 253°
2026-04-28 09:14 30.96788 120.71419 21267 ft 371 kts 253°
2026-04-28 09:14 30.96063 120.68525 21733 ft 373 kts 253°
2026-04-28 09:14 30.95333 120.65611 22185 ft 376 kts 253°
2026-04-28 09:14 30.94597 120.62671 22641 ft 379 kts 253°
2026-04-28 09:15 30.93857 120.59715 23084 ft 382 kts 253°
2026-04-28 09:15 30.93110 120.56738 23532 ft 384 kts 252°
2026-04-28 09:15 30.92357 120.53745 23925 ft 386 kts 252°
2026-04-28 09:15 30.91599 120.50731 24291 ft 388 kts 253°
2026-04-28 09:16 30.90828 120.47709 24664 ft 390 kts 251°
2026-04-28 09:16 30.89724 120.44827 25026 ft 392 kts 240°
2026-04-28 09:16 30.88131 120.42237 25378 ft 396 kts 230°
2026-04-28 09:16 30.86099 120.40055 25728 ft 402 kts 219°
2026-04-28 09:17 30.83807 120.38165 26079 ft 405 kts 218°
2026-04-28 09:17 30.81499 120.36275 26424 ft 407 kts 218°
2026-04-28 09:17 30.79177 120.34371 26782 ft 410 kts 218°
2026-04-28 09:17 30.76844 120.32451 27136 ft 412 kts 219°
2026-04-28 09:18 30.74499 120.30520 27496 ft 415 kts 219°
2026-04-28 09:18 30.72135 120.28574 27839 ft 417 kts 219°
2026-04-28 09:18 30.69760 120.26623 28170 ft 420 kts 219°
2026-04-28 09:18 30.67356 120.24654 28503 ft 423 kts 219°
2026-04-28 09:19 30.64946 120.22681 28827 ft 426 kts 219°
2026-04-28 09:19 30.62516 120.20686 29154 ft 429 kts 219°
2026-04-28 09:19 30.60070 120.18678 29562 ft 430 kts 219°
2026-04-28 09:19 30.57636 120.16680 30071 ft 429 kts 219°
2026-04-28 09:20 30.55198 120.14681 30526 ft 428 kts 219°
2026-04-28 09:20 30.52766 120.12694 30947 ft 427 kts 219°
2026-04-28 09:20 30.50336 120.10714 31369 ft 427 kts 220°
2026-04-28 09:20 30.47905 120.08736 31801 ft 426 kts 220°
2026-04-28 09:21 30.45478 120.06762 32231 ft 426 kts 220°
2026-04-28 09:21 30.43021 120.04847 32654 ft 428 kts 216°
2026-04-28 09:21 30.40436 120.03122 33072 ft 428 kts 216°
2026-04-28 09:21 30.37853 120.01400 33504 ft 428 kts 216°
2026-04-28 09:22 30.35312 119.99703 33953 ft 427 kts 216°
2026-04-28 09:22 30.32744 119.97988 34360 ft 426 kts 217°
2026-04-28 09:22 30.30177 119.96278 34763 ft 425 kts 217°
2026-04-28 09:22 30.27616 119.94575 35159 ft 423 kts 217°
2026-04-28 09:23 30.25070 119.92887 35558 ft 422 kts 217°
2026-04-28 09:23 30.22530 119.91201 35947 ft 420 kts 217°
2026-04-28 09:23 30.19994 119.89515 36127 ft 419 kts 217°
2026-04-28 09:24 30.14918 119.86131 36180 ft 422 kts 217°
2026-04-28 09:24 30.09821 119.82749 36180 ft 422 kts 217°
2026-04-28 09:25 30.04739 119.79389 36172 ft 421 kts 217°
2026-04-28 09:25 29.99668 119.75998 36168 ft 421 kts 217°
2026-04-28 09:26 29.94608 119.72587 36157 ft 421 kts 217°
2026-04-28 09:26 29.89543 119.69170 36145 ft 422 kts 217°
2026-04-28 09:27 29.82046 119.63944 36137 ft 420 kts 220°
2026-04-28 09:27 29.77249 119.60128 36144 ft 420 kts 222°
2026-04-28 09:28 29.72470 119.56272 36136 ft 419 kts 221°
2026-04-28 09:28 29.67662 119.52487 36127 ft 419 kts 221°
2026-04-28 09:29 29.62949 119.48583 36123 ft 412 kts 229°
2026-04-28 09:29 29.59075 119.43806 36113 ft 408 kts 233°
2026-04-28 09:30 29.55272 119.38960 36108 ft 408 kts 233°
2026-04-28 09:30 29.51466 119.34113 36106 ft 409 kts 233°
2026-04-28 09:31 29.47653 119.29264 36101 ft 409 kts 233°
2026-04-28 09:31 29.43840 119.24420 36100 ft 409 kts 233°
2026-04-28 09:32 29.40026 119.19582 36095 ft 409 kts 233°
2026-04-28 09:32 29.36206 119.14746 36089 ft 409 kts 233°
2026-04-28 09:33 29.32392 119.09913 36087 ft 409 kts 233°
2026-04-28 09:33 29.28594 119.05112 36083 ft 409 kts 233°
2026-04-28 09:34 29.24764 119.00284 36080 ft 410 kts 233°
2026-04-28 09:34 29.20926 118.95459 36078 ft 410 kts 233°
2026-04-28 09:35 29.17090 118.90635 36073 ft 410 kts 233°
2026-04-28 09:35 29.13250 118.85823 36063 ft 409 kts 233°
2026-04-28 09:36 29.09404 118.81008 36052 ft 410 kts 232°
2026-04-28 09:36 29.05555 118.76186 36038 ft 410 kts 232°
2026-04-28 09:37 29.01705 118.71372 36030 ft 411 kts 232°
2026-04-28 09:37 28.97852 118.66548 36025 ft 411 kts 232°
2026-04-28 09:38 28.94641 118.62539 36022 ft 412 kts 232°
2026-04-28 09:38 28.90767 118.57716 36019 ft 412 kts 232°
2026-04-28 09:39 28.86892 118.52899 36015 ft 412 kts 232°
2026-04-28 09:39 28.83019 118.48082 36019 ft 412 kts 232°
2026-04-28 09:40 28.79134 118.43261 36012 ft 413 kts 232°
2026-04-28 09:40 28.75253 118.38447 36008 ft 413 kts 232°
2026-04-28 09:41 28.71362 118.33633 36004 ft 413 kts 232°
2026-04-28 09:41 28.67471 118.28818 36003 ft 413 kts 232°
2026-04-28 09:42 28.63608 118.24030 36000 ft 414 kts 232°
2026-04-28 09:42 28.59712 118.19217 35995 ft 414 kts 232°
2026-04-28 09:43 28.55801 118.14406 35992 ft 414 kts 232°
2026-04-28 09:43 28.51894 118.09596 35991 ft 414 kts 232°
2026-04-28 09:44 28.47989 118.04780 35992 ft 414 kts 232°
2026-04-28 09:44 28.44073 117.99966 35986 ft 414 kts 231°
2026-04-28 09:45 28.40147 117.95171 35995 ft 415 kts 231°
2026-04-28 09:45 28.36144 117.90438 35977 ft 416 kts 230°
2026-04-28 09:46 28.32119 117.85723 35977 ft 416 kts 230°
2026-04-28 09:46 28.28097 117.80998 35980 ft 416 kts 230°
2026-04-28 09:47 28.24077 117.76261 35976 ft 417 kts 230°
2026-04-28 09:47 28.20055 117.71529 35976 ft 417 kts 230°
2026-04-28 09:48 28.16030 117.66800 35980 ft 417 kts 230°
2026-04-28 09:48 28.12026 117.62086 35979 ft 418 kts 230°
2026-04-28 09:49 28.07984 117.57344 35966 ft 419 kts 230°
2026-04-28 09:49 28.03933 117.52611 35967 ft 419 kts 230°
2026-04-28 09:50 27.99879 117.47873 35966 ft 419 kts 230°
2026-04-28 09:50 27.95829 117.43128 35969 ft 420 kts 230°
2026-04-28 09:51 27.91772 117.38379 35968 ft 420 kts 230°
2026-04-28 09:51 27.87702 117.33641 35967 ft 420 kts 230°
2026-04-28 09:52 27.83628 117.28905 35968 ft 420 kts 230°
2026-04-28 09:52 27.79558 117.24167 35963 ft 420 kts 230°
2026-04-28 09:53 27.75485 117.19426 35958 ft 421 kts 230°
2026-04-28 09:53 27.71410 117.14690 35952 ft 420 kts 230°
2026-04-28 09:54 27.67328 117.09954 35955 ft 421 kts 230°
2026-04-28 09:54 27.63243 117.05225 35953 ft 421 kts 229°
2026-04-28 09:55 27.59179 117.00523 35952 ft 421 kts 229°
2026-04-28 09:55 27.55089 116.95797 35948 ft 421 kts 229°
2026-04-28 09:56 27.50993 116.91071 35945 ft 421 kts 229°
2026-04-28 09:56 27.46928 116.86317 35939 ft 421 kts 230°
2026-04-28 09:57 27.42883 116.81544 35942 ft 422 kts 230°
2026-04-28 09:57 27.38816 116.76779 35935 ft 422 kts 229°
2026-04-28 09:58 27.34735 116.72030 35940 ft 422 kts 229°
2026-04-28 09:58 27.30651 116.67273 35937 ft 423 kts 229°
2026-04-28 09:59 27.26567 116.62516 35936 ft 423 kts 229°
2026-04-28 09:59 27.22472 116.57749 35939 ft 424 kts 229°
2026-04-28 10:00 27.18395 116.52971 35936 ft 424 kts 230°
2026-04-28 10:00 27.14392 116.48111 35936 ft 424 kts 230°
2026-04-28 10:01 27.10409 116.43228 35937 ft 424 kts 230°
2026-04-28 10:01 27.06415 116.38364 35953 ft 424 kts 230°
2026-04-28 10:02 27.02398 116.33515 35957 ft 424 kts 230°
2026-04-28 10:02 26.98375 116.28674 35956 ft 424 kts 230°
2026-04-28 10:03 26.94348 116.23829 35952 ft 425 kts 230°
2026-04-28 10:03 26.90322 116.18979 35945 ft 425 kts 230°
2026-04-28 10:04 26.86312 116.14099 35946 ft 426 kts 230°
2026-04-28 10:04 26.82308 116.09211 35954 ft 426 kts 230°
2026-04-28 10:05 26.78295 116.04331 35952 ft 426 kts 230°
2026-04-28 10:05 26.74281 115.99447 35957 ft 426 kts 230°
2026-04-28 10:06 26.70285 115.94601 35948 ft 427 kts 230°
2026-04-28 10:06 26.66251 115.89725 35951 ft 427 kts 230°
2026-04-28 10:07 26.62217 115.84851 35945 ft 427 kts 230°
2026-04-28 10:07 26.58178 115.79969 35949 ft 428 kts 230°
2026-04-28 10:08 26.54140 115.75087 35951 ft 428 kts 230°
2026-04-28 10:08 26.50092 115.70212 35955 ft 428 kts 230°
2026-04-28 10:09 26.46044 115.65334 35946 ft 428 kts 230°
2026-04-28 10:09 26.41998 115.60461 35955 ft 428 kts 230°
2026-04-28 10:10 26.37945 115.55591 35953 ft 428 kts 230°
2026-04-28 10:10 26.33888 115.50728 35953 ft 428 kts 230°
2026-04-28 10:11 26.29834 115.45866 35952 ft 428 kts 230°
2026-04-28 10:11 26.25783 115.41011 35954 ft 428 kts 230°
2026-04-28 10:12 26.21734 115.36159 35957 ft 428 kts 230°
2026-04-28 10:12 26.17701 115.31349 35957 ft 427 kts 230°
2026-04-28 10:13 26.13646 115.26518 35956 ft 427 kts 230°
2026-04-28 10:13 26.09595 115.21681 35956 ft 427 kts 230°
2026-04-28 10:14 26.05552 115.16851 35955 ft 427 kts 230°
2026-04-28 10:14 26.01502 115.12025 35956 ft 426 kts 230°
2026-04-28 10:15 25.97448 115.07219 35949 ft 426 kts 230°
2026-04-28 10:15 25.93388 115.02406 35949 ft 426 kts 230°
2026-04-28 10:16 25.89341 114.97595 35950 ft 426 kts 230°
2026-04-28 10:16 25.85291 114.92787 35949 ft 426 kts 230°
2026-04-28 10:17 25.80834 114.88493 35947 ft 433 kts 214°
2026-04-28 10:17 25.75176 114.86077 35944 ft 443 kts 197°
2026-04-28 10:18 25.69151 114.84588 35937 ft 444 kts 197°
2026-04-28 10:18 25.63125 114.83097 35937 ft 444 kts 197°
2026-04-28 10:19 25.57090 114.81600 35937 ft 445 kts 197°
2026-04-28 10:19 25.51050 114.80100 35939 ft 445 kts 197°
2026-04-28 10:20 25.45006 114.78602 35940 ft 445 kts 197°
2026-04-28 10:20 25.38963 114.77103 35946 ft 445 kts 197°
2026-04-28 10:21 25.32905 114.75612 35942 ft 446 kts 197°
2026-04-28 10:21 25.26847 114.74126 35944 ft 446 kts 197°
2026-04-28 10:22 25.20786 114.72632 35946 ft 447 kts 197°
2026-04-28 10:22 25.14718 114.71137 35945 ft 447 kts 197°
2026-04-28 10:23 25.08648 114.69635 35948 ft 448 kts 197°
2026-04-28 10:23 25.02568 114.68135 35954 ft 448 kts 197°
2026-04-28 10:24 24.96479 114.66644 35953 ft 449 kts 197°
2026-04-28 10:24 24.90382 114.65153 35961 ft 449 kts 197°
2026-04-28 10:25 24.84278 114.63663 35961 ft 449 kts 197°
2026-04-28 10:25 24.78218 114.62171 35964 ft 449 kts 197°
2026-04-28 10:26 24.72123 114.60647 35969 ft 448 kts 200°
2026-04-28 10:26 24.66511 114.57925 35973 ft 439 kts 214°
2026-04-28 10:27 24.61224 114.54570 35974 ft 439 kts 214°
2026-04-28 10:27 24.55921 114.51235 35980 ft 439 kts 213°
2026-04-28 10:28 24.50623 114.47905 35984 ft 439 kts 213°
2026-04-28 10:29 24.42674 114.42898 35987 ft 439 kts 213°
2026-04-28 10:29 24.38236 114.40103 35979 ft 439 kts 213°
2026-04-28 10:30 24.32964 114.36795 35984 ft 439 kts 213°
2026-04-28 10:30 24.27657 114.33472 35989 ft 439 kts 213°
2026-04-28 10:31 24.22350 114.30158 35987 ft 439 kts 213°
2026-04-28 10:31 24.17041 114.26837 35990 ft 439 kts 213°
2026-04-28 10:32 24.11732 114.23521 35989 ft 439 kts 213°
2026-04-28 10:32 24.06423 114.20208 35984 ft 439 kts 213°
2026-04-28 10:33 24.01115 114.16894 35984 ft 439 kts 213°
2026-04-28 10:33 23.95805 114.13579 35984 ft 440 kts 213°
2026-04-28 10:34 23.90493 114.10265 35986 ft 439 kts 213°
2026-04-28 10:34 23.85180 114.06958 35981 ft 440 kts 213°
2026-04-28 10:35 23.79854 114.03660 35982 ft 440 kts 213°
2026-04-28 10:35 23.74538 114.00358 35984 ft 440 kts 213°
2026-04-28 10:36 23.69216 113.97048 35979 ft 440 kts 213°
2026-04-28 10:36 23.63894 113.93750 35977 ft 440 kts 213°
2026-04-28 10:37 23.58566 113.90454 35973 ft 440 kts 213°
2026-04-28 10:37 23.53274 113.87176 35974 ft 441 kts 213°
2026-04-28 10:38 23.47553 113.84671 35971 ft 448 kts 199°
2026-04-28 10:38 23.41530 113.82869 35968 ft 448 kts 200°
2026-04-28 10:39 23.35519 113.81050 35973 ft 448 kts 200°
2026-04-28 10:39 23.29512 113.79228 35968 ft 449 kts 200°
2026-04-28 10:40 23.23496 113.77420 35967 ft 449 kts 200°
2026-04-28 10:40 23.17478 113.75614 35967 ft 449 kts 200°
2026-04-28 10:41 23.11457 113.73806 35966 ft 449 kts 200°
2026-04-28 10:41 23.05445 113.72003 35961 ft 449 kts 200°
2026-04-28 10:42 22.99427 113.70199 35960 ft 449 kts 200°
2026-04-28 10:42 22.93405 113.68397 35959 ft 449 kts 200°
2026-04-28 10:43 22.87432 113.66609 35961 ft 449 kts 200°
2026-04-28 10:43 22.81420 113.64782 35961 ft 448 kts 200°
2026-04-28 10:44 22.75422 113.62947 35963 ft 448 kts 200°
2026-04-28 10:44 22.69419 113.61108 35959 ft 449 kts 200°
2026-04-28 10:45 22.63403 113.59271 35959 ft 449 kts 200°
2026-04-28 10:45 22.57380 113.57448 35955 ft 450 kts 200°
2026-04-28 10:46 22.51346 113.55617 35953 ft 450 kts 200°
2026-04-28 10:46 22.45315 113.53763 35948 ft 451 kts 200°
2026-04-28 10:47 22.39283 113.51908 35954 ft 451 kts 200°
2026-04-28 10:47 22.33296 113.50073 35954 ft 451 kts 200°
2026-04-28 10:48 22.27349 113.47997 35957 ft 446 kts 210°
2026-04-28 10:48 22.24708 113.46300 35960 ft 439 kts 221°
2026-04-28 10:48 22.22436 113.44122 35955 ft 434 kts 231°
2026-04-28 10:49 22.19217 113.38733 35951 ft 426 kts 250°
2026-04-28 10:49 22.17020 113.32791 35945 ft 427 kts 250°
2026-04-28 10:50 22.14809 113.26847 35947 ft 427 kts 250°
2026-04-28 10:50 22.12562 113.20954 35946 ft 428 kts 249°
2026-04-28 10:51 22.10112 113.15089 35948 ft 429 kts 248°
2026-04-28 10:51 22.07615 113.09236 35955 ft 430 kts 248°
2026-04-28 10:52 22.05142 113.03366 35960 ft 430 kts 248°
2026-04-28 10:52 22.02715 112.97479 35957 ft 429 kts 249°
2026-04-28 10:53 22.00407 112.91543 35961 ft 430 kts 250°
2026-04-28 10:53 21.98132 112.85597 35960 ft 429 kts 250°
2026-04-28 10:54 21.95827 112.79664 35965 ft 429 kts 249°
2026-04-28 10:54 21.93448 112.73756 35963 ft 430 kts 249°
2026-04-28 10:55 21.91045 112.67858 35963 ft 430 kts 249°
2026-04-28 10:55 21.88649 112.61962 35961 ft 430 kts 249°
2026-04-28 10:56 21.86254 112.56053 35962 ft 431 kts 249°
2026-04-28 10:56 21.83883 112.50126 35963 ft 431 kts 250°
2026-04-28 10:57 21.81538 112.44178 35963 ft 431 kts 250°
2026-04-28 10:57 21.79205 112.38275 35963 ft 432 kts 250°
2026-04-28 10:58 21.76846 112.32334 35960 ft 432 kts 250°
2026-04-28 10:58 21.74479 112.26399 35955 ft 432 kts 250°
2026-04-28 10:59 21.72111 112.20460 35955 ft 433 kts 250°
2026-04-28 10:59 21.69734 112.14505 35959 ft 433 kts 250°
2026-04-28 11:00 21.67356 112.08553 35964 ft 433 kts 250°
2026-04-28 11:00 21.64984 112.02598 35961 ft 434 kts 250°
2026-04-28 11:01 21.62603 111.96643 35962 ft 435 kts 250°
2026-04-28 11:01 21.60202 111.90671 35967 ft 435 kts 250°
2026-04-28 11:02 21.57783 111.84700 35967 ft 437 kts 248°
2026-04-28 11:02 21.54307 111.79282 35968 ft 445 kts 234°
2026-04-28 11:03 21.50254 111.74193 35967 ft 445 kts 234°
2026-04-28 11:03 21.46250 111.69167 35965 ft 446 kts 234°
2026-04-28 11:04 21.42224 111.64106 35959 ft 446 kts 234°
2026-04-28 11:04 21.38202 111.59043 35963 ft 446 kts 234°
2026-04-28 11:05 21.34147 111.53944 35966 ft 446 kts 234°
2026-04-28 11:05 21.30143 111.48930 35967 ft 446 kts 233°
2026-04-28 11:06 21.26104 111.43882 35970 ft 446 kts 233°
2026-04-28 11:06 21.22071 111.38839 35967 ft 445 kts 233°
2026-04-28 11:07 21.18046 111.33800 35962 ft 445 kts 233°
2026-04-28 11:07 21.14015 111.28762 35960 ft 445 kts 233°
2026-04-28 11:08 21.09986 111.23726 35962 ft 445 kts 233°
2026-04-28 11:08 21.05955 111.18698 35960 ft 445 kts 233°
2026-04-28 11:09 21.01923 111.13676 35958 ft 445 kts 233°
2026-04-28 11:09 20.97886 111.08661 35952 ft 444 kts 233°
2026-04-28 11:10 20.93883 111.03681 35952 ft 444 kts 233°
2026-04-28 11:10 20.89875 110.98660 35951 ft 444 kts 233°
2026-04-28 11:11 20.85872 110.93636 35951 ft 443 kts 233°
2026-04-28 11:11 20.81870 110.88615 35944 ft 443 kts 233°
2026-04-28 11:12 20.77870 110.83610 35951 ft 443 kts 233°
2026-04-28 11:12 20.73861 110.78618 35953 ft 442 kts 233°
2026-04-28 11:13 20.69856 110.73635 35947 ft 442 kts 233°
2026-04-28 11:13 20.65862 110.68645 35949 ft 442 kts 233°
2026-04-28 11:14 20.61870 110.63666 35943 ft 441 kts 233°
2026-04-28 11:14 20.57872 110.58693 35946 ft 441 kts 233°
2026-04-28 11:15 20.53876 110.53730 35952 ft 441 kts 233°
2026-04-28 11:15 20.49709 110.48994 35637 ft 445 kts 223°
2026-04-28 11:15 20.47176 110.47058 35392 ft 448 kts 219°
2026-04-28 11:16 20.44612 110.45171 35160 ft 448 kts 219°
2026-04-28 11:16 20.42046 110.43289 34935 ft 448 kts 219°
2026-04-28 11:16 20.39473 110.41412 34691 ft 449 kts 219°
2026-04-28 11:16 20.36894 110.39529 34462 ft 449 kts 219°
2026-04-28 11:17 20.34316 110.37647 34231 ft 449 kts 219°
2026-04-28 11:17 20.31739 110.35766 34005 ft 450 kts 219°
2026-04-28 11:17 20.30031 110.34516 33855 ft 450 kts 219°
2026-04-28 11:17 20.27688 110.32800 33623 ft 450 kts 219°
2026-04-28 11:18 20.25106 110.30911 33365 ft 451 kts 219°
2026-04-28 11:18 20.22518 110.29017 33107 ft 451 kts 219°
2026-04-28 11:18 20.19930 110.27128 32853 ft 452 kts 219°
2026-04-28 11:18 20.17334 110.25233 32598 ft 452 kts 219°
2026-04-28 11:19 20.14742 110.23341 32357 ft 453 kts 219°
2026-04-28 11:19 20.13020 110.22086 32183 ft 453 kts 219°
2026-04-28 11:19 20.09535 110.19544 31856 ft 454 kts 219°
2026-04-28 11:19 20.07810 110.18286 31696 ft 455 kts 219°
2026-04-28 11:20 20.04314 110.15736 31374 ft 456 kts 219°
2026-04-28 11:20 20.01675 110.13864 31136 ft 459 kts 214°
2026-04-28 11:20 19.98790 110.12350 30899 ft 464 kts 209°
2026-04-28 11:20 19.96842 110.11407 30747 ft 465 kts 209°
2026-04-28 11:21 19.93898 110.09984 30517 ft 466 kts 209°
2026-04-28 11:21 19.90945 110.08560 30285 ft 467 kts 209°
2026-04-28 11:21 19.87982 110.07135 30056 ft 468 kts 209°
2026-04-28 11:21 19.85015 110.05708 29816 ft 468 kts 209°
2026-04-28 11:22 19.82047 110.04277 29550 ft 469 kts 209°
2026-04-28 11:22 19.78111 110.02375 29193 ft 469 kts 209°
2026-04-28 11:22 19.76145 110.01425 29009 ft 469 kts 209°
2026-04-28 11:22 19.73174 109.99994 28762 ft 468 kts 209°
2026-04-28 11:23 19.70213 109.98573 28504 ft 466 kts 208°
2026-04-28 11:23 19.67263 109.97160 28237 ft 464 kts 208°
2026-04-28 11:23 19.64330 109.95753 27984 ft 462 kts 209°
2026-04-28 11:23 19.61412 109.94349 27731 ft 459 kts 209°
2026-04-28 11:24 19.58508 109.92949 27478 ft 457 kts 209°
2026-04-28 11:24 19.55623 109.91556 27223 ft 455 kts 209°
2026-04-28 11:24 19.52750 109.90173 26986 ft 453 kts 208°
2026-04-28 11:24 19.49885 109.88795 26740 ft 451 kts 208°
2026-04-28 11:25 19.47038 109.87428 26503 ft 449 kts 208°
2026-04-28 11:25 19.44200 109.86067 26265 ft 447 kts 208°
2026-04-28 11:25 19.41378 109.84712 26028 ft 444 kts 208°
2026-04-28 11:25 19.38566 109.83361 25790 ft 443 kts 208°
2026-04-28 11:26 19.35766 109.82018 25562 ft 441 kts 208°
2026-04-28 11:26 19.32978 109.80689 25334 ft 439 kts 208°
2026-04-28 11:26 19.30194 109.79367 25103 ft 437 kts 208°
2026-04-28 11:26 19.27423 109.78058 24879 ft 436 kts 208°
2026-04-28 11:27 19.24658 109.76756 24651 ft 434 kts 208°
2026-04-28 11:27 19.21913 109.75454 24435 ft 432 kts 208°
2026-04-28 11:27 19.19217 109.74159 24211 ft 430 kts 208°
2026-04-28 11:27 19.16500 109.72846 23991 ft 428 kts 209°
2026-04-28 11:28 19.13797 109.71534 23775 ft 428 kts 209°
2026-04-28 11:28 19.11094 109.70222 23560 ft 426 kts 208°
2026-04-28 11:28 19.08405 109.68922 23329 ft 424 kts 208°
2026-04-28 11:28 19.05727 109.67632 23070 ft 422 kts 208°
2026-04-28 11:29 19.03064 109.66351 22535 ft 418 kts 208°
2026-04-28 11:29 19.00426 109.65084 21835 ft 414 kts 208°
2026-04-28 11:29 18.97819 109.63833 21175 ft 411 kts 208°
2026-04-28 11:29 18.95229 109.62591 20529 ft 407 kts 208°
2026-04-28 11:30 18.92658 109.61356 19916 ft 403 kts 208°
2026-04-28 11:30 18.87589 109.58918 18732 ft 398 kts 208°
2026-04-28 11:30 18.85074 109.57710 18130 ft 396 kts 208°
2026-04-28 11:31 18.82573 109.56510 17477 ft 393 kts 208°
2026-04-28 11:31 18.80104 109.55327 16872 ft 389 kts 207°
2026-04-28 11:31 18.77653 109.54155 16254 ft 384 kts 207°
2026-04-28 11:31 18.75230 109.52994 15635 ft 381 kts 207°
2026-04-28 11:32 18.72819 109.51837 14956 ft 380 kts 207°
2026-04-28 11:32 18.70557 109.50750 14313 ft 379 kts 207°
2026-04-28 11:32 18.68156 109.49594 13629 ft 379 kts 207°
2026-04-28 11:32 18.65758 109.48439 12878 ft 378 kts 207°
2026-04-28 11:33 18.63375 109.47293 12174 ft 375 kts 207°
2026-04-28 11:33 18.61009 109.46158 11479 ft 372 kts 206°
2026-04-28 11:33 18.58662 109.45037 10890 ft 367 kts 206°
2026-04-28 11:33 18.56394 109.43955 10811 ft 348 kts 206°
2026-04-28 11:34 18.54257 109.42939 10809 ft 324 kts 206°
2026-04-28 11:34 18.52185 109.42281 10611 ft 305 kts 187°
2026-04-28 11:34 18.50136 109.42508 10219 ft 299 kts 162°
2026-04-28 11:34 18.48357 109.43651 10106 ft 299 kts 138°
2026-04-28 11:35 18.47180 109.45385 9668 ft 297 kts 114°
2026-04-28 11:35 18.46498 109.47431 9032 ft 296 kts 110°
2026-04-28 11:35 18.45846 109.49477 8460 ft 292 kts 110°
2026-04-28 11:35 18.45216 109.51446 8265 ft 276 kts 110°
2026-04-28 11:36 18.44606 109.53329 7923 ft 268 kts 111°
2026-04-28 11:36 18.43986 109.55169 7447 ft 266 kts 112°
2026-04-28 11:36 18.43358 109.56988 6988 ft 263 kts 112°
2026-04-28 11:36 18.42731 109.58793 6533 ft 261 kts 112°
2026-04-28 11:37 18.42110 109.60581 6080 ft 259 kts 112°
2026-04-28 11:37 18.41494 109.62353 5616 ft 256 kts 114°
2026-04-28 11:37 18.40571 109.63922 5008 ft 253 kts 138°
2026-04-28 11:37 18.39132 109.64876 4702 ft 237 kts 163°
2026-04-28 11:38 18.37590 109.65202 4578 ft 217 kts 174°
2026-04-28 11:38 18.36139 109.65406 4473 ft 206 kts 174°
2026-04-28 11:38 18.34729 109.65421 4153 ft 203 kts 198°
2026-04-28 11:38 18.33610 109.64613 3945 ft 195 kts 233°
2026-04-28 11:39 18.33142 109.63298 3741 ft 194 kts 259°
2026-04-28 11:39 18.32964 109.61886 3496 ft 194 kts 260°
2026-04-28 11:39 18.32791 109.60495 3278 ft 188 kts 260°
2026-04-28 11:39 18.32620 109.59151 3033 ft 183 kts 259°
2026-04-28 11:40 18.32454 109.57868 2795 ft 169 kts 259°
2026-04-28 11:40 18.32306 109.56716 2592 ft 150 kts 259°
2026-04-28 11:40 18.32169 109.55663 2400 ft 142 kts 259°
2026-04-28 11:40 18.32036 109.54640 2228 ft 140 kts 259°
2026-04-28 11:41 18.31905 109.53626 2044 ft 138 kts 259°
2026-04-28 11:41 18.31774 109.52622 1858 ft 139 kts 258°
2026-04-28 11:41 18.31642 109.51619 1676 ft 138 kts 259°
2026-04-28 11:41 18.31512 109.50613 1499 ft 139 kts 259°
2026-04-28 11:42 18.31383 109.49616 1336 ft 138 kts 259°
2026-04-28 11:42 18.31252 109.48613 1149 ft 139 kts 259°
2026-04-28 11:42 18.31121 109.47602 979 ft 140 kts 260°
2026-04-28 11:42 18.30988 109.46581 808 ft 141 kts 261°
2026-04-28 11:43 18.30857 109.45560 635 ft 141 kts 262°
2026-04-28 11:43 18.30724 109.44552 459 ft 141 kts 262°
2026-04-28 11:43 18.30592 109.43533 273 ft 140 kts 262°
2026-04-28 11:43 18.30463 109.42522 116 ft 138 kts 262°
2026-04-28 11:44 18.30343 109.41622 92 ft 107 kts 262°
2026-04-28 11:44 18.30265 109.41028 82 ft 58 kts 262°
2026-04-28 11:44 18.30217 109.40664 79 ft 44 kts 262°
2026-04-28 11:44 18.30198 109.40398 77 ft 29 kts 276°
2026-04-28 11:45 18.30240 109.40240 78 ft 19 kts 290°
2026-04-28 11:45 18.30291 109.40147 73 ft 12 kts 335°
2026-04-28 11:45 18.30379 109.40139 73 ft 11 kts 18°
2026-04-28 11:45 18.30406 109.40221 73 ft 14 kts 82°
2026-04-28 11:46 18.30421 109.40332 76 ft 17 kts 82°
2026-04-28 11:46 18.30438 109.40465 79 ft 20 kts 82°
2026-04-28 11:46 18.30454 109.40594 80 ft 14 kts 82°
2026-04-28 11:46 18.30493 109.40673 82 ft 13 kts 12°
2026-04-28 11:47 18.30587 109.40663 83 ft 14 kts 352°
2026-04-28 11:47 18.30672 109.40652 82 ft 10 kts 353°
2026-04-28 11:47 18.30744 109.40652 82 ft 10 kts 353°
2026-04-28 11:47 18.30789 109.40645 82 ft 2 kts 352°
2026-04-28 11:48 18.30801 109.40644 84 ft 1 kts 353°
2026-04-28 11:48 18.30802 109.40644 84 ft 0 kts 353°
2026-04-28 12:10 18.30797 109.40644 81 ft 3 kts 353°
2026-04-28 12:10 18.30770 109.40648 84 ft 4 kts 351°
2026-04-28 12:11 18.30744 109.40655 76 ft 4 kts 329°
2026-04-28 12:11 18.30726 109.40669 82 ft 4 kts 307°
2026-04-28 12:11 18.30717 109.40694 83 ft 4 kts 267°
2026-04-28 12:11 18.30718 109.40707 83 ft 0 kts 262°
2026-04-28 12:14 18.30714 109.40681 81 ft 6 kts 262°
2026-04-28 12:15 18.30676 109.40651 83 ft 10 kts 180°
2026-04-28 12:15 18.30600 109.40660 83 ft 12 kts 172°
2026-04-28 12:15 18.30510 109.40673 83 ft 14 kts 172°
2026-04-28 12:15 18.30419 109.40684 80 ft 11 kts 187°
2026-04-28 12:16 18.30384 109.40611 80 ft 13 kts 264°
2026-04-28 12:16 18.30372 109.40506 82 ft 16 kts 262°
2026-04-28 12:16 18.30355 109.40382 78 ft 18 kts 262°
2026-04-28 12:16 18.30336 109.40239 77 ft 21 kts 262°
2026-04-28 12:17 18.30316 109.40077 67 ft 23 kts 262°
2026-04-28 12:17 18.30292 109.39900 75 ft 24 kts 262°
2026-04-28 12:17 18.30272 109.39747 65 ft 18 kts 262°
2026-04-28 12:17 18.30256 109.39676 68 ft 13 kts 241°
2026-04-28 12:18 18.30181 109.39633 74 ft 12 kts 186°
2026-04-28 12:18 18.30108 109.39644 71 ft 6 kts 168°
2026-04-28 12:18 18.30090 109.39681 72 ft 7 kts 87°
2026-04-28 12:18 18.30104 109.39795 73 ft 41 kts 82°
2026-04-28 12:19 18.30184 109.40401 77 ft 121 kts 82°
2026-04-28 12:19 18.30331 109.41495 107 ft 178 kts 82°
2026-04-28 12:19 18.30503 109.42798 893 ft 179 kts 83°
2026-04-28 12:19 18.30675 109.44092 1820 ft 179 kts 85°
2026-04-28 12:20 18.30858 109.45388 2731 ft 179 kts 85°
2026-04-28 12:20 18.31135 109.46658 3539 ft 179 kts 63°
2026-04-28 12:20 18.32048 109.47596 3879 ft 195 kts 36°
2026-04-28 12:20 18.33207 109.48483 4098 ft 217 kts 37°
2026-04-28 12:21 18.34480 109.49489 4291 ft 241 kts 37°
2026-04-28 12:21 18.35875 109.50608 4678 ft 261 kts 38°
2026-04-28 12:21 18.37332 109.51789 5341 ft 267 kts 37°
2026-04-28 12:21 18.38814 109.52998 6068 ft 272 kts 37°
2026-04-28 12:22 18.40322 109.54234 6775 ft 277 kts 37°
2026-04-28 12:22 18.41844 109.55486 7526 ft 278 kts 37°
2026-04-28 12:22 18.43359 109.56732 8251 ft 282 kts 37°
2026-04-28 12:22 18.44913 109.58011 8999 ft 285 kts 37°
2026-04-28 12:23 18.46479 109.59301 9739 ft 287 kts 37°
2026-04-28 12:23 18.48063 109.60603 10406 ft 290 kts 36°
2026-04-28 12:23 18.49763 109.61753 11008 ft 295 kts 24°
2026-04-28 12:23 18.51695 109.62693 11189 ft 317 kts 22°
2026-04-28 12:24 18.53778 109.63683 11330 ft 340 kts 22°
2026-04-28 12:24 18.56004 109.64737 11454 ft 361 kts 22°
2026-04-28 12:24 18.58345 109.65849 11696 ft 375 kts 22°
2026-04-28 12:24 18.60741 109.66994 12197 ft 381 kts 22°
2026-04-28 12:25 18.63164 109.68155 12763 ft 384 kts 22°
2026-04-28 12:25 18.65600 109.69325 13337 ft 387 kts 22°
2026-04-28 12:25 18.68062 109.70509 13884 ft 390 kts 22°
2026-04-28 12:25 18.70543 109.71702 14372 ft 393 kts 22°
2026-04-28 12:26 18.73045 109.72903 14827 ft 397 kts 22°
2026-04-28 12:26 18.75569 109.74112 15312 ft 400 kts 22°
2026-04-28 12:26 18.78113 109.75332 15796 ft 404 kts 22°
2026-04-28 12:26 18.80676 109.76564 16259 ft 407 kts 22°
2026-04-28 12:27 18.83267 109.77809 16719 ft 411 kts 22°
2026-04-28 12:27 18.85878 109.79062 17171 ft 415 kts 22°
2026-04-28 12:27 18.88515 109.80329 17659 ft 417 kts 21°
2026-04-28 12:27 18.91166 109.81604 18145 ft 421 kts 21°
2026-04-28 12:28 18.93843 109.82893 18547 ft 424 kts 21°
2026-04-28 12:28 18.96535 109.84188 18976 ft 426 kts 21°
2026-04-28 12:28 18.99237 109.85489 19415 ft 429 kts 21°
2026-04-28 12:28 19.01960 109.86804 19844 ft 431 kts 21°
2026-04-28 12:29 19.07442 109.89445 20688 ft 435 kts 21°
2026-04-28 12:29 19.10209 109.90778 21103 ft 438 kts 21°
2026-04-28 12:29 19.12986 109.92113 21502 ft 440 kts 21°
2026-04-28 12:30 19.15780 109.93455 21900 ft 442 kts 21°
2026-04-28 12:30 19.18586 109.94806 22269 ft 445 kts 21°
2026-04-28 12:30 19.21410 109.96170 22646 ft 447 kts 21°
2026-04-28 12:30 19.24240 109.97540 23023 ft 449 kts 21°
2026-04-28 12:31 19.27058 109.98896 23378 ft 451 kts 21°
2026-04-28 12:31 19.29966 110.00260 23683 ft 453 kts 20°
2026-04-28 12:31 19.32828 110.01578 23979 ft 455 kts 20°
2026-04-28 12:31 19.35730 110.02932 24266 ft 458 kts 21°
2026-04-28 12:32 19.38645 110.04320 24559 ft 460 kts 21°
2026-04-28 12:32 19.41560 110.05729 24847 ft 462 kts 21°
2026-04-28 12:32 19.44492 110.07154 25130 ft 465 kts 21°
2026-04-28 12:32 19.47436 110.08589 25409 ft 467 kts 21°
2026-04-28 12:33 19.50394 110.10024 25690 ft 469 kts 21°
2026-04-28 12:33 19.53371 110.11465 25972 ft 471 kts 21°
2026-04-28 12:33 19.56359 110.12910 26255 ft 473 kts 21°
2026-04-28 12:33 19.59364 110.14365 26537 ft 476 kts 21°
2026-04-28 12:34 19.62382 110.15828 26816 ft 478 kts 20°
2026-04-28 12:34 19.65420 110.17297 27095 ft 481 kts 20°
2026-04-28 12:34 19.68466 110.18767 27372 ft 483 kts 20°
2026-04-28 12:34 19.71529 110.20245 27641 ft 485 kts 20°
2026-04-28 12:35 19.74605 110.21734 27942 ft 487 kts 20°
2026-04-28 12:35 19.77685 110.23230 28344 ft 486 kts 20°
2026-04-28 12:35 19.80761 110.24726 28754 ft 485 kts 20°
2026-04-28 12:35 19.83828 110.26218 29157 ft 485 kts 20°
2026-04-28 12:36 19.86895 110.27709 29559 ft 485 kts 20°
2026-04-28 12:36 19.89966 110.29201 29948 ft 485 kts 20°
2026-04-28 12:36 19.93032 110.30689 30296 ft 485 kts 20°
2026-04-28 12:36 19.96098 110.32180 30646 ft 485 kts 20°
2026-04-28 12:37 19.99163 110.33673 30986 ft 485 kts 20°
2026-04-28 12:37 20.02231 110.35165 31343 ft 484 kts 19°
2026-04-28 12:37 20.05375 110.36370 31707 ft 478 kts 10°
2026-04-28 12:37 20.08615 110.37025 32065 ft 472 kts
2026-04-28 12:38 20.11869 110.37134 32412 ft 465 kts 352°
2026-04-28 12:38 20.15062 110.36718 32762 ft 460 kts 343°
2026-04-28 12:38 20.18194 110.36046 33108 ft 460 kts 343°
2026-04-28 12:38 20.21337 110.35380 33464 ft 460 kts 344°
2026-04-28 12:39 20.24482 110.34720 33822 ft 461 kts 344°
2026-04-28 12:39 20.27630 110.34063 34121 ft 461 kts 344°
2026-04-28 12:39 20.30772 110.33405 34433 ft 461 kts 343°
2026-04-28 12:39 20.33915 110.32745 34745 ft 460 kts 343°
2026-04-28 12:40 20.37057 110.32083 35046 ft 460 kts 343°
2026-04-28 12:40 20.40195 110.31418 35349 ft 459 kts 343°
2026-04-28 12:40 20.43325 110.30754 35642 ft 459 kts 343°
2026-04-28 12:40 20.46458 110.30091 35935 ft 459 kts 343°
2026-04-28 12:41 20.49615 110.29549 36210 ft 463 kts 350°
2026-04-28 12:41 20.52859 110.29512 36473 ft 470 kts 358°
2026-04-28 12:41 20.56081 110.29726 36731 ft 470 kts 358°
2026-04-28 12:41 20.59397 110.29946 36907 ft 471 kts 358°
2026-04-28 12:42 20.62636 110.30158 36946 ft 476 kts 358°
2026-04-28 12:42 20.69292 110.30594 36942 ft 480 kts 358°
2026-04-28 12:43 20.75966 110.31035 36947 ft 481 kts 358°
2026-04-28 12:43 20.82648 110.31476 36944 ft 481 kts 358°
2026-04-28 12:44 20.89333 110.31911 36945 ft 481 kts 358°
2026-04-28 12:44 20.96024 110.32348 36947 ft 482 kts 358°
2026-04-28 12:45 21.02724 110.32782 36960 ft 482 kts 357°
2026-04-28 12:45 21.09417 110.33493 36968 ft 490 kts
2026-04-28 12:45 21.12678 110.34621 36964 ft 497 kts 19°
2026-04-28 12:46 21.15733 110.36386 36961 ft 502 kts 31°
2026-04-28 12:46 21.18463 110.38740 36964 ft 507 kts 43°
2026-04-28 12:46 21.20740 110.41215 36962 ft 507 kts 43°
2026-04-28 12:47 21.25683 110.46619 36969 ft 508 kts 43°
2026-04-28 12:47 21.30629 110.52027 36967 ft 508 kts 43°
2026-04-28 12:48 21.35585 110.57443 36969 ft 508 kts 43°
2026-04-28 12:48 21.40533 110.62860 36978 ft 508 kts 43°
2026-04-28 12:49 21.45475 110.68281 36979 ft 508 kts 43°
2026-04-28 12:49 21.50413 110.73700 36979 ft 508 kts 43°
2026-04-28 12:50 21.55347 110.79123 36985 ft 507 kts 43°
2026-04-28 12:50 21.60282 110.84541 36996 ft 507 kts 43°
2026-04-28 12:51 21.65170 110.89921 36995 ft 506 kts 44°
2026-04-28 12:51 21.70080 110.95344 36993 ft 506 kts 44°
2026-04-28 12:52 21.75005 111.00796 37005 ft 505 kts 44°
2026-04-28 12:52 21.79873 111.06182 37009 ft 505 kts 44°
2026-04-28 12:53 21.84766 111.11590 36990 ft 504 kts 43°
2026-04-28 12:53 21.89663 111.17000 36997 ft 504 kts 43°
2026-04-28 12:54 21.94549 111.22404 37008 ft 503 kts 44°
2026-04-28 12:54 21.99428 111.27819 37002 ft 503 kts 44°
2026-04-28 12:55 22.04300 111.33232 37007 ft 503 kts 44°
2026-04-28 12:55 22.09174 111.38645 37009 ft 503 kts 44°
2026-04-28 12:56 22.14051 111.44076 37008 ft 504 kts 44°
2026-04-28 12:56 22.18923 111.49504 37012 ft 504 kts 44°
2026-04-28 12:57 22.23798 111.54932 37015 ft 503 kts 44°
2026-04-28 12:57 22.28633 111.60332 37010 ft 503 kts 44°
2026-04-28 12:58 22.33494 111.65766 37012 ft 503 kts 44°
2026-04-28 12:58 22.38350 111.71201 37003 ft 502 kts 44°
2026-04-28 12:59 22.43201 111.76633 36994 ft 503 kts 44°
2026-04-28 12:59 22.48055 111.82073 36993 ft 503 kts 44°
2026-04-28 13:00 22.52911 111.87517 36997 ft 503 kts 44°
2026-04-28 13:00 22.57758 111.92963 36999 ft 502 kts 44°
2026-04-28 13:01 22.62599 111.98417 36991 ft 502 kts 44°
2026-04-28 13:01 22.67431 112.03860 36979 ft 502 kts 44°
2026-04-28 13:02 22.72279 112.09314 36994 ft 502 kts 44°
2026-04-28 13:02 22.77109 112.14761 36997 ft 501 kts 44°
2026-04-28 13:03 22.81901 112.20177 36997 ft 500 kts 44°
2026-04-28 13:03 22.86708 112.25624 36995 ft 500 kts 44°
2026-04-28 13:04 22.91512 112.31067 36995 ft 499 kts 44°
2026-04-28 13:04 22.96316 112.36509 36993 ft 499 kts 44°
2026-04-28 13:05 23.01100 112.41959 36995 ft 499 kts 47°
2026-04-28 13:05 23.04818 112.48294 36992 ft 500 kts 68°
2026-04-28 13:06 23.06385 112.55573 36987 ft 495 kts 89°
2026-04-28 13:06 23.06152 112.61751 36980 ft 492 kts 97°
2026-04-28 13:07 23.05647 112.69171 36975 ft 493 kts 96°
2026-04-28 13:07 23.05150 112.76596 36969 ft 494 kts 96°
2026-04-28 13:08 23.04642 112.84037 36973 ft 494 kts 96°
2026-04-28 13:08 23.04122 112.91473 36976 ft 495 kts 96°
2026-04-28 13:09 23.03608 112.98927 36980 ft 495 kts 96°
2026-04-28 13:09 23.03093 113.06376 36980 ft 495 kts 96°
2026-04-28 13:10 23.02566 113.13824 36976 ft 495 kts 96°
2026-04-28 13:10 23.02440 113.21293 36977 ft 497 kts 84°
2026-04-28 13:11 23.03253 113.28748 36975 ft 497 kts 84°
2026-04-28 13:11 23.04059 113.36208 36975 ft 498 kts 84°
2026-04-28 13:12 23.04851 113.43680 36977 ft 498 kts 84°
2026-04-28 13:12 23.05637 113.51102 36975 ft 499 kts 84°
2026-04-28 13:13 23.06433 113.58589 36978 ft 499 kts 84°
2026-04-28 13:13 23.07216 113.66073 36982 ft 500 kts 84°
2026-04-28 13:14 23.07998 113.73578 36985 ft 500 kts 84°
2026-04-28 13:14 23.09419 113.80941 36989 ft 499 kts 68°
2026-04-28 13:14 23.10902 113.84338 36990 ft 497 kts 57°
2026-04-28 13:15 23.12855 113.87426 36989 ft 494 kts 47°
2026-04-28 13:15 23.17847 113.92434 36984 ft 488 kts 34°
2026-04-28 13:16 23.23182 113.97006 36991 ft 489 kts 34°
2026-04-28 13:16 23.28521 114.01595 36997 ft 489 kts 34°
2026-04-28 13:17 23.33857 114.06163 36997 ft 489 kts 34°
2026-04-28 13:17 23.39211 114.10722 37002 ft 489 kts 34°
2026-04-28 13:18 23.44536 114.15270 37010 ft 489 kts 34°
2026-04-28 13:18 23.49880 114.19846 37012 ft 489 kts 34°
2026-04-28 13:19 23.55228 114.24425 37012 ft 489 kts 34°
2026-04-28 13:19 23.60585 114.28999 37011 ft 489 kts 34°
2026-04-28 13:20 23.65932 114.33576 37012 ft 489 kts 34°
2026-04-28 13:20 23.71336 114.38063 37008 ft 488 kts 32°
2026-04-28 13:21 23.76788 114.42484 37012 ft 488 kts 32°
2026-04-28 13:21 23.82228 114.46913 37012 ft 488 kts 32°
2026-04-28 13:22 23.87659 114.51376 37010 ft 489 kts 33°
2026-04-28 13:22 23.93086 114.55851 37013 ft 489 kts 33°
2026-04-28 13:23 23.98524 114.60331 37013 ft 489 kts 33°
2026-04-28 13:23 24.03950 114.64809 37017 ft 489 kts 33°
2026-04-28 13:24 24.09380 114.69297 37016 ft 489 kts 33°
2026-04-28 13:24 24.14818 114.73795 37019 ft 490 kts 33°
2026-04-28 13:25 24.20253 114.78287 37020 ft 490 kts 33°
2026-04-28 13:25 24.25696 114.82790 37021 ft 490 kts 33°
2026-04-28 13:26 24.30542 114.88088 37020 ft 498 kts 50°
2026-04-28 13:26 24.34725 114.94082 37017 ft 498 kts 50°
2026-04-28 13:27 24.38945 115.00101 37017 ft 498 kts 50°
2026-04-28 13:27 24.43179 115.06126 37016 ft 498 kts 50°
2026-04-28 13:28 24.47403 115.12165 37022 ft 499 kts 50°
2026-04-28 13:28 24.51624 115.18209 37024 ft 499 kts 50°
2026-04-28 13:29 24.55846 115.24260 37028 ft 499 kts 50°
2026-04-28 13:29 24.60035 115.30273 37034 ft 499 kts 50°
2026-04-28 13:30 24.64280 115.36370 37033 ft 499 kts 50°
2026-04-28 13:30 24.68457 115.42396 37035 ft 499 kts 51°
2026-04-28 13:31 24.74531 115.51693 37036 ft 499 kts 52°
2026-04-28 13:31 24.78523 115.57957 37038 ft 500 kts 52°
2026-04-28 13:32 24.82545 115.64191 37044 ft 500 kts 52°
2026-04-28 13:32 24.86592 115.70404 37043 ft 499 kts 52°
2026-04-28 13:33 24.90632 115.76629 37041 ft 499 kts 52°
2026-04-28 13:33 24.94659 115.82857 37049 ft 499 kts 52°
2026-04-28 13:34 24.98648 115.89045 37046 ft 498 kts 52°
2026-04-28 13:34 25.02683 115.95314 37051 ft 498 kts 52°
2026-04-28 13:35 25.06674 116.01493 37049 ft 498 kts 52°
2026-04-28 13:35 25.10703 116.07757 37049 ft 497 kts 52°
2026-04-28 13:36 25.14671 116.13944 37052 ft 497 kts 52°
2026-04-28 13:36 25.18662 116.20179 37050 ft 497 kts 52°
2026-04-28 13:37 25.22648 116.26412 37052 ft 497 kts 52°
2026-04-28 13:37 25.26634 116.32639 37041 ft 496 kts 52°
2026-04-28 13:38 25.30618 116.38859 37057 ft 496 kts 52°
2026-04-28 13:38 25.34594 116.45100 37050 ft 496 kts 52°
2026-04-28 13:39 25.38562 116.51338 37052 ft 496 kts 52°
2026-04-28 13:39 25.42531 116.57579 37051 ft 496 kts 52°
2026-04-28 13:40 25.46495 116.63819 37056 ft 496 kts 52°
2026-04-28 13:40 25.50466 116.70063 37059 ft 496 kts 52°
2026-04-28 13:41 25.54430 116.76313 37063 ft 496 kts 52°
2026-04-28 13:41 25.58384 116.82565 37060 ft 496 kts 52°
2026-04-28 13:42 25.62336 116.88822 37055 ft 496 kts 52°
2026-04-28 13:42 25.66288 116.95083 37050 ft 496 kts 52°
2026-04-28 13:43 25.70243 117.01352 37051 ft 496 kts 52°
2026-04-28 13:43 25.74189 117.07624 37049 ft 496 kts 52°
2026-04-28 13:44 25.78113 117.13873 37044 ft 497 kts 52°
2026-04-28 13:44 25.82068 117.20159 37039 ft 497 kts 52°
2026-04-28 13:45 25.86016 117.26451 37033 ft 497 kts 52°
2026-04-28 13:45 25.89966 117.32757 37037 ft 497 kts 52°
2026-04-28 13:46 25.93912 117.39066 37038 ft 497 kts 52°
2026-04-28 13:46 25.97854 117.45387 37032 ft 498 kts 52°
2026-04-28 13:47 26.01793 117.51716 37034 ft 498 kts 52°
2026-04-28 13:47 26.05733 117.58043 37033 ft 497 kts 52°
2026-04-28 13:48 26.09673 117.64368 37041 ft 498 kts 52°
2026-04-28 13:48 26.13609 117.70703 37035 ft 497 kts 52°
2026-04-28 13:49 26.17533 117.77034 37040 ft 497 kts 52°
2026-04-28 13:49 26.21431 117.83329 37042 ft 497 kts 52°
2026-04-28 13:50 26.25345 117.89658 37041 ft 496 kts 52°
2026-04-28 13:50 26.29257 117.95988 37033 ft 495 kts 52°
2026-04-28 13:51 26.33157 118.02304 37034 ft 495 kts 52°
2026-04-28 13:51 26.37049 118.08623 38463 ft 484 kts 55°
2026-04-28 13:52 26.38900 118.11629 39273 ft 460 kts 56°
2026-04-28 13:52 26.40708 118.14570 39357 ft 459 kts 56°
2026-04-28 13:52 26.44307 118.20432 39146 ft 457 kts 56°
2026-04-28 13:53 26.47893 118.26262 39110 ft 456 kts 56°
2026-04-28 13:53 26.51382 118.31947 39109 ft 456 kts 56°
2026-04-28 13:54 26.54964 118.37801 39109 ft 456 kts 56°
2026-04-28 13:54 26.58542 118.43660 39109 ft 456 kts 56°
2026-04-28 13:55 26.62093 118.49482 39109 ft 456 kts 56°
2026-04-28 13:55 26.65665 118.55343 39109 ft 456 kts 56°
2026-04-28 13:56 26.69237 118.61210 39109 ft 456 kts 56°
2026-04-28 13:56 26.72804 118.67083 39109 ft 456 kts 56°
2026-04-28 13:57 26.76375 118.72953 39109 ft 456 kts 56°
2026-04-28 13:57 26.79945 118.78834 39109 ft 456 kts 56°
2026-04-28 13:58 26.83509 118.84717 39109 ft 456 kts 56°
2026-04-28 13:58 26.86466 118.89609 39109 ft 456 kts 56°
2026-04-28 13:59 26.90029 118.95494 39109 ft 457 kts 56°
2026-04-28 13:59 26.93585 119.01392 39109 ft 457 kts 56°
2026-04-28 14:00 26.97134 119.07294 39109 ft 457 kts 56°
2026-04-28 14:00 27.00681 119.13192 39109 ft 457 kts 56°
2026-04-28 14:01 27.04232 119.19103 39109 ft 457 kts 56°
2026-04-28 14:01 27.07783 119.25006 39109 ft 457 kts 56°
2026-04-28 14:02 27.11331 119.30924 39109 ft 457 kts 56°
2026-04-28 14:02 27.14875 119.36842 39109 ft 457 kts 56°
2026-04-28 14:03 27.18412 119.42757 39109 ft 456 kts 56°
2026-04-28 14:03 27.21947 119.48687 39109 ft 456 kts 56°
2026-04-28 14:04 27.25453 119.54573 39109 ft 456 kts 57°
2026-04-28 14:04 27.28480 119.60837 39108 ft 456 kts 63°
2026-04-28 14:05 27.31394 119.67179 39109 ft 456 kts 63°
2026-04-28 14:05 27.34310 119.73523 39109 ft 456 kts 63°
2026-04-28 14:06 27.37220 119.79866 39109 ft 456 kts 63°
2026-04-28 14:06 27.40131 119.86219 39109 ft 457 kts 63°
2026-04-28 14:07 27.43037 119.92568 39109 ft 457 kts 63°
2026-04-28 14:07 27.45946 119.98927 39109 ft 457 kts 63°
2026-04-28 14:08 27.48834 120.05239 39109 ft 457 kts 63°
2026-04-28 14:08 27.51725 120.11605 39109 ft 457 kts 63°
2026-04-28 14:09 27.54613 120.17971 39109 ft 456 kts 63°
2026-04-28 14:09 27.57449 120.24195 39109 ft 457 kts 63°
2026-04-28 14:10 27.60348 120.30564 39109 ft 457 kts 63°
2026-04-28 14:10 27.63817 120.36528 39109 ft 456 kts 47°
2026-04-28 14:11 27.68743 120.40997 39109 ft 456 kts 32°
2026-04-28 14:11 27.74107 120.44845 39109 ft 457 kts 32°
2026-04-28 14:12 27.79460 120.48707 39109 ft 457 kts 32°
2026-04-28 14:12 27.84811 120.52590 39109 ft 457 kts 32°
2026-04-28 14:13 27.90164 120.56462 39109 ft 457 kts 32°
2026-04-28 14:13 27.95522 120.60342 38229 ft 458 kts 27°
2026-04-28 14:14 28.00966 120.63993 37750 ft 459 kts 18°
2026-04-28 14:14 28.03975 120.65237 37364 ft 461 kts
2026-04-28 14:14 28.07103 120.65978 37037 ft 458 kts
2026-04-28 14:15 28.10281 120.66317 36791 ft 459 kts 359°
2026-04-28 14:15 28.13474 120.66628 36546 ft 461 kts 359°
2026-04-28 14:15 28.16676 120.66941 36305 ft 463 kts 359°
2026-04-28 14:15 28.19891 120.67257 36058 ft 464 kts 359°
2026-04-28 14:16 28.23113 120.67575 35822 ft 466 kts 359°
2026-04-28 14:16 28.26341 120.67895 35586 ft 467 kts 359°
2026-04-28 14:16 28.29582 120.68214 35350 ft 468 kts 359°